KOLMKTIW

Guest
Details From KOLM - OLYMPIA
To KTIW - TACOMA NARROWS
Flight Number -
Tags generated
Created
Modified
Stats Distance 22 nm / 41 km
Max Altitude 0 ft / 0 m
Waypoints 3
Social Downloads 1
Likes 0
Share VATSIM

Download

Looking for another format? Having issues loading an existing format? Contact us
Advertisement - Login to hide

Notes

Basic altitude profile: - Ascent Rate: 2500ft/min - Ascent Speed: 250kts - Cruise Altitude: 35000ft - Cruise Speed: 420kts - Descent Rate: 1500ft/min - Descent Speed: 250kts Options: - Use NATs: yes - Use PACOTS: yes - Use low airways: yes - Use high airways: yes

Route

KOLM OLM KTIW

ID Type Via Altitude Latitude Longitude Leg Dist Tot Dist Heading (true) Name
O KOLM APT - 0 ft / 0 m 46.96931˚ -122.90248˚ - 0 nm - OLYMPIA
OLM VOR - 0 ft / 0 m 46.97164˚ -122.90183˚ 0 nm 0 nm 11° / 11° OLYMPIA VORTAC
O KTIW APT - 0 ft / 0 m 47.26793˚ -122.57811˚ 22 nm 22 nm 37° / 37° TACOMA NARROWS

Altitude Profile

Advertisement - Login to hide

KOLM

Details ICAO KOLM (OLM)
Name OLYMPIA
Region United States
Timezone America/Los_Angeles (UTC-7.0)
Stats Elevation 209 ft / 64 m (AMSL)
Location 46.969312° -122.902479°
Runways 2
Magnetic Variation 15.614° E

METAR

KOLM 220554Z AUTO 00000KT 10SM CLR 11/08 A2999 RMK AO2 SLP156 T01110083 10211 20111 53000

Decode

TAF

KOLM 220537Z 2206/2306 00000KT P6SM SKC TEMPO 2211/2214 3SM BR FM221800 01006KT P6SM SKC

Decode

Departure Runways

ID Width Length Bearing (true) Bearing (mag) Surface Threshold Offset Overrun Length
08 151 ft / 46 m 4,147 ft / 1,264 m 103.71° 88.10° Asphalt 0 ft / 0 m 0 ft / 0 m
17 151 ft / 46 m 5,503 ft / 1,677 m 191.27° 175.66° Asphalt 0 ft / 0 m 600 ft / 183 m
26 151 ft / 46 m 4,147 ft / 1,264 m 283.72° 268.11° Asphalt 0 ft / 0 m 0 ft / 0 m
35 151 ft / 46 m 5,503 ft / 1,677 m 11.27° 355.66° Asphalt 0 ft / 0 m 0 ft / 0 m

KTIW

Details ICAO KTIW (TIW)
Name TACOMA NARROWS
Region United States
Timezone America/Los_Angeles (UTC-7.0)
Stats Elevation 292 ft / 89 m (AMSL)
Location 47.267930° -122.578113°
Runways 1
Magnetic Variation 15.628° E

METAR

KTIW 220553Z AUTO 03003KT 10SM CLR 15/08 A3000 RMK AO2 SLP158 T01500078 10194 20139 56001

Decode

TAF

Not found

Destination Runways

ID Width Length Bearing (true) Bearing (mag) Surface Threshold Offset Overrun Length
17 150 ft / 46 m 5,004 ft / 1,525 m 186.99° 171.36° Asphalt 0 ft / 0 m 0 ft / 0 m
35 150 ft / 46 m 5,004 ft / 1,525 m 6.99° 351.36° Asphalt 0 ft / 0 m 0 ft / 0 m

Approach Navaids

Runway Type Ident Frequency Range Bearing (true) Bearing (mag) Slope Elevation
17 Localiser ITIW 109.10 MHz 18 nm / 33 km 186.99° 171.36° - 292 ft / 89 m (AMSL)
17 Glidescope ITIW 109.10 MHz 10 nm / 19 km 186.99° 171.36° 3.00° 292 ft / 89 m (AMSL)

Popular Alternatives